CW8656 Weather Reports


Display with metric or nautical units.
time (UTC)temp
F
wind
direction
speed
MPH
gust
MPH
rain 1hr
in
rain 24hr
in
rain mn
in
humidity
%
barometer
mb
20220924190257 67 0 6.0 12.0 0.00 0.00 0.00 35 1029.4
20220924185758 67 0 6.0 12.0 0.00 0.00 0.00 32 1029.4
20220924185256 68 130 5.0 11.0 0.00 0.00 0.00 32 1029.6
20220924185025 67 150 6.0 13.0 0.00 0.00 0.00 30 1029.4
20220924184254 67 0 7.0 13.0 0.00 0.00 0.00 30 1029.2
20220924183748 67 0 6.0 12.0 0.00 0.00 0.00 27 1029.6
20220924183245 67 0 5.0 11.0 0.00 0.00 0.00 26 1029.4
20220924183012 67 0 5.0 11.0 0.00 0.00 0.00 27 1029.4
20220924182234 67 0 5.0 11.0 0.00 0.00 0.00 29 1029.6
20220924181956 67 0 5.0 11.0 0.00 0.00 0.00 26 1029.9
20220924181218 67 0 5.0 11.0 0.00 0.00 0.00 27 1029.9
20220924180712 67 0 6.0 14.0 0.00 0.00 0.00 28 1029.8
20220924180202 67 0 5.0 12.0 0.00 0.00 0.00 29 1030.1
20220924175702 67 0 4.0 9.0 0.00 0.00 0.00 28 1030.1
20220924175159 67 0 5.0 11.0 0.00 0.00 0.00 30 1029.8
20220924174700 66 0 5.0 11.0 0.00 0.00 0.00 30 1029.6
20220924174200 66 0 6.0 11.0 0.00 0.00 0.00 28 1029.4
20220924173931 66 0 6.0 12.0 0.00 0.00 0.00 28 1029.6
20220924173159 66 0 6.0 13.0 0.00 0.00 0.00 30 1029.6
20220924172658 65 0 7.0 13.0 0.00 0.00 0.00 30 1029.2
20220924172157 65 0 7.0 12.0 0.00 0.00 0.00 29 1029.1
20220924171656 65 0 8.0 14.0 0.00 0.00 0.00 30 1029.2
20220924171155 64 0 9.0 16.0 0.00 0.00 0.00 30 1028.9
20220924170656 64 0 10.0 16.0 0.00 0.00 0.00 30 1028.7
20220924170155 64 0 8.0 13.0 0.00 0.00 0.00 31 1028.9
20220924165923 65 0 6.0 13.0 0.00 0.00 0.00 31 1029.7
20220924165152 65 0 5.0 13.0 0.00 0.00 0.00 31 1029.6
20220924164651 66 0 5.0 14.0 0.00 0.00 0.00 29 1029.8
20220924164150 66 0 4.0 14.0 0.00 0.00 0.00 27 1029.7
20220924163650 65 170 3.0 14.0 0.00 0.00 0.00 27 1029.4
20220924163151 65 170 4.0 14.0 0.00 0.00 0.00 25 1029.1
20220924162648 66 344 3.0 8.0 0.00 0.00 0.00 26 1029.9
20220924162147 66 89 3.0 8.0 0.00 0.00 0.00 28 1029.8
20220924161647 65 28 3.0 6.0 0.00 0.00 0.00 28 1029.2
20220924161407 63 30 6.0 12.0 0.00 0.00 0.00 28 1028.2
20220924160136 63 0 5.0 13.0 0.00 0.00 0.00 28 1027.9
20220924155906 62 211 4.0 13.0 0.00 0.00 0.00 30 1027.7
20220924155135 62 0 5.0 13.0 0.00 0.00 0.00 29 1027.6
20220924154633 62 44 5.0 9.0 0.00 0.00 0.00 30 1027.6
20220924154133 61 342 6.0 11.0 0.00 0.00 0.00 29 1027.2
20220924153904 61 0 7.0 13.0 0.00 0.00 0.00 29 1027.1
20220924152615 60 0 11.0 21.0 0.00 0.00 0.00 31 1026.6
20220924152339 60 0 11.0 21.0 0.00 0.00 0.00 31 1026.3
20220924151049 60 0 11.0 21.0 0.00 0.00 0.00 32 1025.9
20220924150542 59 17 14.0 27.0 0.00 0.00 0.00 32 1025.8
20220924150035 59 0 15.0 27.0 0.00 0.00 0.00 31 1025.7
20220924145802 59 0 12.0 23.0 0.00 0.00 0.00 32 1025.6
20220924145032 59 0 13.0 22.0 0.00 0.00 0.00 32 1025.7
20220924144802 59 0 13.0 26.0 0.00 0.00 0.00 32 1025.4
20220924144031 59 0 11.0 26.0 0.00 0.00 0.00 32 1025.2
20220924143801 58 0 12.0 20.0 0.00 0.00 0.00 32 1025.2
20220924143300 58 0 12.0 20.0 0.00 0.00 0.00 33 1025.4
20220924142529 58 0 10.0 21.0 0.00 0.00 0.00 32 1025.2
20220924142029 58 0 12.0 21.0 0.00 0.00 0.00 33 1025.1
20220924141756 58 0 12.0 26.0 0.00 0.00 0.00 33 1025.1
20220924141255 58 0 12.0 26.0 0.00 0.00 0.00 32 1024.7
20220924140023 57 0 13.0 24.0 0.00 0.00 0.00 33 1024.7
20220924135523 58 0 13.0 22.0 0.00 0.00 0.00 32 1024.7
20220924135253 57 0 8.0 22.0 0.00 0.00 0.00 32 1024.6
20220924134523 57 0 5.0 12.0 0.00 0.00 0.00 32 1024.6
20220924134024 57 0 5.0 11.0 0.00 0.00 0.00 32 1024.6
20220924133248 57 0 6.0 14.0 0.00 0.00 0.00 31 1024.7
20220924132511 57 0 7.0 15.0 0.00 0.00 0.00 32 1024.7
20220924132012 57 0 6.0 15.0 0.00 0.00 0.00 32 1024.6
20220924131513 57 0 4.0 11.0 0.00 0.00 0.00 32 1024.3
20220924131244 56 198 3.0 5.0 0.00 0.00 0.00 32 1024.1
20220924130511 56 176 2.0 5.0 0.00 0.00 0.00 33 1023.8
20220924130011 56 0 3.0 6.0 0.00 0.00 0.00 33 1023.8
20220924125508 56 0 4.0 11.0 0.00 0.00 0.00 33 1023.7
20220924124959 56 0 3.0 11.0 0.00 0.00 0.00 33 1023.7
20220924124224 56 0 5.0 15.0 0.00 0.00 0.00 33 1023.7
20220924123452 55 0 5.0 12.0 0.00 0.00 0.00 34 1023.4
20220924121945 57 0 9.0 15.0 0.00 0.00 0.00 32 1024.2
20220924121441 56 0 5.0 15.0 0.00 0.00 0.00 32 1024.2
20220924120939 56 0 2.0 6.0 0.00 0.00 0.00 32 1023.8
20220924115931 56 277 4.0 7.0 0.00 0.00 0.00 33 1023.9
20220924115202 55 0 2.0 5.0 0.00 0.00 0.00 34 1023.4
20220924113400 54 0 3.0 5.0 0.00 0.00 0.00 36 1023.1
20220924113132 54 0 3.0 5.0 0.00 0.00 0.00 36 1023.1
20220924112354 55 0 3.0 5.0 0.00 0.00 0.00 36 1023.3
20220924111856 56 0 3.0 5.0 0.00 0.00 0.00 34 1023.8
20220924110831 55 0 2.0 4.0 0.00 0.00 0.00 35 1023.4
20220924110323 55 0 3.0 4.0 0.00 0.00 0.00 35 1023.3
20220924105816 55 0 2.0 4.0 0.00 0.00 0.00 34 1023.6
20220924105316 56 0 2.0 3.0 0.00 0.00 0.00 34 1023.9
20220924104825 56 0 1.0 3.0 0.00 0.00 0.00 34 1024.1
20220924104532 56 0 1.0 3.0 0.00 0.00 0.00 34 1023.9
20220924103759 56 0 1.0 3.0 0.00 0.00 0.00 33 1024.1
20220924103249 57 0 1.0 2.0 0.00 0.00 0.00 33 1024.2
20220924102514 56 0 5.0 11.0 0.00 0.00 0.00 34 1024.1
20220924102007 55 0 4.0 9.0 0.00 0.00 0.00 36 1023.2
20220924101234 54 0 3.0 6.0 0.00 0.00 0.00 37 1022.8
20220924095454 55 0 4.0 7.0 0.00 0.00 0.00 36 1023.2
20220924094940 56 0 2.0 7.0 0.00 0.00 0.00 35 1023.4
20220924093652 55 0 1.0 3.0 0.00 0.00 0.00 35 1023.2
20220924093146 55 0 1.0 3.0 0.00 0.00 0.00 35 1023.3
20220924092908 56 0 2.0 4.0 0.00 0.00 0.00 35 1023.8
20220924092347 56 0 2.0 4.0 0.00 0.00 0.00 35 1023.6
20220924091847 56 0 1.0 3.0 0.00 0.00 0.00 34 1023.7
20220924091115 56 0 1.0 3.0 0.00 0.00 0.00 34 1024.1
20220924090601 56 236 1.0 3.0 0.00 0.00 0.00 34 1024.1
20220924085551 56 0 2.0 4.0 0.00 0.00 0.00 34 1023.7
20220924085038 56 0 3.0 6.0 0.00 0.00 0.00 35 1023.8
20220924084524 56 236 3.0 6.0 0.00 0.00 0.00 35 1023.8
20220924084249 56 0 2.0 5.0 0.00 0.00 0.00 35 1023.8
20220924083007 56 0 1.0 2.0 0.00 0.00 0.00 35 1023.8
20220924082731 56 0 1.0 3.0 0.00 0.00 0.00 35 1023.8
20220924081937 56 0 1.0 3.0 0.00 0.00 0.00 35 1023.9
20220924081708 56 0 1.0 2.0 0.00 0.00 0.00 35 1023.9
20220924081217 56 0 1.0 2.0 0.00 0.00 0.00 35 1023.7
20220924080448 56 0 1.0 3.0 0.00 0.00 0.00 35 1023.7
20220924075915 56 0 2.0 4.0 0.00 0.00 0.00 36 1023.6
20220924075412 55 0 2.0 4.0 0.00 0.00 0.00 36 1023.6
20220924074911 56 0 1.0 4.0 0.00 0.00 0.00 36 1023.6
20220924074641 55 0 0.0 3.0 0.00 0.00 0.00 36 1023.6
20220924073907 56 0 0.0 2.0 0.00 0.00 0.00 36 1023.8
20220924073638 56 0 1.0 3.0 0.00 0.00 0.00 36 1023.7
20220924072900 56 0 3.0 6.0 0.00 0.00 0.00 36 1023.6
20220924072401 56 0 4.0 6.0 0.00 0.00 0.00 36 1023.6
20220924071859 55 0 5.0 9.0 0.00 0.01 0.00 37 1023.2
20220924071341 55 0 4.0 9.0 0.00 0.01 0.00 37 1023.2
20220924071109 56 0 3.0 6.0 0.00 0.01 0.00 36 1023.4
20220924070335 56 0 4.0 7.0 0.00 0.01 0.00 35 1023.6
20220924070108 56 0 5.0 8.0 0.00 0.01 0.00 36 1023.4
20220924065334 56 0 3.0 8.0 0.00 0.01 0.00 36 1023.4
20220924064831 56 107 3.0 7.0 0.00 0.01 0.00 35 1023.3
20220924064059 55 0 5.0 11.0 0.00 0.01 0.00 37 1022.9
20220924062813 55 0 7.0 13.0 0.00 0.01 0.00 38 1022.6
20220924062547 55 0 4.0 10.0 0.00 0.01 0.00 37 1022.9
20220924061813 56 0 4.0 7.0 0.00 0.01 0.00 36 1023.4
20220924061314 56 150 6.0 10.0 0.00 0.01 0.00 35 1023.3
20220924060803 57 0 6.0 12.0 0.00 0.01 0.00 35 1023.7
20220924055803 60 126 17.0 32.0 0.00 0.01 0.01 30 1025.3
20220924055305 60 0 22.0 33.0 0.00 0.01 0.01 29 1024.8
20220924054757 60 0 23.0 33.0 0.00 0.01 0.01 30 1024.9
20220924054521 60 0 21.0 32.0 0.00 0.01 0.01 30 1024.4
20220924053750 60 0 17.0 29.0 0.00 0.01 0.01 31 1024.2
20220924053249 59 0 14.0 28.0 0.00 0.01 0.01 32 1023.9
20220924052748 58 0 13.0 25.0 0.00 0.01 0.01 32 1023.9
20220924052249 58 0 13.0 25.0 0.00 0.01 0.01 32 1024.1
20220924051246 59 0 10.0 20.0 0.00 0.01 0.01 32 1024.4
20220924050746 59 0 7.0 15.0 0.00 0.01 0.01 32 1024.6
20220924050246 58 0 3.0 7.0 0.00 0.01 0.01 32 1024.2
20220924045746 57 0 2.0 4.0 0.00 0.01 0.01 33 1024.1
20220924044741 57 0 2.0 5.0 0.00 0.01 0.01 33 1024.1
20220924044235 58 0 3.0 5.0 0.00 0.01 0.01 33 1023.9
20220924043729 57 0 2.0 4.0 0.00 0.01 0.01 33 1023.7
20220924043228 57 0 3.0 9.0 0.00 0.01 0.01 34 1023.9
20220924042715 57 0 3.0 9.0 0.00 0.01 0.01 33 1023.6
20220924042430 58 0 3.0 6.0 0.00 0.01 0.01 33 1024.2
20220924041142 58 0 3.0 6.0 0.00 0.01 0.01 32 1024.6
20220924040914 59 0 4.0 6.0 0.00 0.01 0.01 32 1024.6
20220924040126 59 0 5.0 9.0 0.00 0.01 0.01 32 1024.8
20220924035621 59 0 5.0 9.0 0.00 0.01 0.01 31 1024.9
20220924035357 59 0 4.0 9.0 0.00 0.01 0.01 31 1024.8
20220924034557 59 219 4.0 6.0 0.00 0.01 0.01 31 1024.8
20220924034322 60 0 4.0 9.0 0.00 0.01 0.01 30 1025.1
20220924033545 60 0 4.0 9.0 0.00 0.01 0.01 30 1025.2
20220924033031 61 0 5.0 12.0 0.00 0.01 0.01 30 1025.3
20220924032757 61 0 7.0 12.0 0.00 0.01 0.01 29 1025.6
20220924032018 61 0 8.0 15.0 0.00 0.01 0.01 29 1025.6
20220924031518 61 0 8.0 15.0 0.00 0.01 0.01 29 1025.6
20220924031012 60 0 9.0 13.0 0.00 0.01 0.01 30 1025.2
20220924030510 60 0 9.0 13.0 0.00 0.01 0.01 30 1024.8
20220924025510 60 0 9.0 14.0 0.00 0.01 0.01 29 1024.9
20220924025010 61 0 8.0 14.0 0.00 0.01 0.01 28 1025.1
20220924023742 61 269 6.0 11.0 0.00 0.01 0.01 28 1025.1
20220924023237 61 0 6.0 11.0 0.00 0.01 0.01 28 1025.1
20220924022505 62 0 6.0 11.0 0.00 0.01 0.01 28 1025.4
20220924022237 62 0 5.0 11.0 0.00 0.01 0.01 27 1025.7
20220924021504 61 0 5.0 11.0 0.00 0.01 0.01 27 1025.2
20220924021231 61 0 4.0 8.0 0.00 0.01 0.01 28 1025.1
20220924020725 62 0 3.0 10.0 0.00 0.01 0.01 28 1025.3
20220924015951 62 0 3.0 10.0 0.00 0.01 0.01 28 1025.3
20220924015451 62 0 2.0 4.0 0.00 0.01 0.01 27 1025.1
20220924014951 61 0 2.0 4.0 0.00 0.01 0.01 28 1024.9
20220924014449 62 0 2.0 4.0 0.00 0.01 0.01 28 1024.8
20220924013945 62 0 2.0 6.0 0.00 0.01 0.01 28 1024.9
20220924013432 62 0 3.0 6.0 0.00 0.01 0.01 27 1025.1
20220924012920 62 0 2.0 5.0 0.00 0.01 0.01 27 1025.3
20220924012420 62 0 2.0 4.0 0.00 0.01 0.01 27 1025.2
20220924011920 62 0 3.0 6.0 0.00 0.01 0.01 27 1025.2
20220924011415 63 0 3.0 6.0 0.00 0.01 0.01 27 1025.3
20220924010903 63 0 3.0 5.0 0.00 0.01 0.01 27 1025.4
20220924010353 64 0 3.0 7.0 0.00 0.01 0.01 26 1025.7
20220924005854 64 0 2.0 7.0 0.00 0.01 0.01 26 1025.9
20220924005347 64 0 2.0 4.0 0.00 0.01 0.01 26 1025.9
20220924004346 65 254 2.0 7.0 0.00 0.01 0.01 25 1026.1
20220924003846 65 19 1.0 5.0 0.00 0.01 0.01 25 1026.1
20220924003618 66 19 3.0 6.0 0.00 0.01 0.01 25 1026.6
20220924002845 67 16 4.0 9.0 0.00 0.01 0.01 24 1026.8
20220924002343 68 343 2.0 9.0 0.00 0.01 0.01 24 1027.2
20220924001841 68 0 1.0 5.0 0.00 0.01 0.01 23 1027.7
20220924001341 68 287 2.0 6.0 0.00 0.01 0.01 25 1027.3
20220924000833 67 0 4.0 10.0 0.00 0.01 0.01 23 1026.9
20220924000554 67 0 8.0 16.0 0.00 0.01 0.01 24 1026.9
20220924000051 68 0 8.0 16.0 0.00 0.01 0.01 24 1026.9
20220923235538 68 0 5.0 14.0 0.00 0.01 0.01 23 1027.4
20220923234758 69 0 5.0 12.0 0.00 0.01 0.01 22 1027.6
20220923234520 69 0 7.0 15.0 0.00 0.01 0.01 21 1027.4
20220923233741 69 0 5.0 15.0 0.00 0.01 0.01 21 1027.6
20220923233235 69 0 5.0 15.0 0.00 0.01 0.01 21 1027.8
20220923232728 69 0 6.0 15.0 0.00 0.01 0.01 20 1027.8
20220923232212 70 0 4.0 15.0 0.00 0.01 0.01 20 1028.1
20220923231709 70 0 3.0 15.0 0.00 0.01 0.01 20 1028.1
20220923231156 70 0 4.0 12.0 0.00 0.01 0.01 20 1028.1
20220923230651 69 0 6.0 14.0 0.00 0.01 0.01 20 1027.7
20220923230142 69 0 8.0 16.0 0.00 0.01 0.01 20 1027.6
20220923225640 69 0 8.0 16.0 0.00 0.01 0.01 20 1027.7
20220923224853 70 0 8.0 20.0 0.00 0.01 0.01 21 1028.1
20220923224356 70 0 8.0 17.0 0.00 0.01 0.01 22 1028.2
20220923223618 70 0 5.0 14.0 0.00 0.01 0.01 21 1028.4
20220923223111 71 33 3.0 10.0 0.00 0.01 0.01 22 1028.4
20220923222848 70 0 3.0 10.0 0.00 0.01 0.01 21 1028.4
20220923222331 70 0 5.0 10.0 0.00 0.01 0.01 23 1028.4
20220923221601 70 0 4.0 10.0 0.00 0.01 0.01 23 1028.4
20220923221059 71 0 3.0 10.0 0.00 0.01 0.01 24 1028.9
20220923220829 70 132 4.0 18.0 0.00 0.01 0.01 25 1028.6
20220923220326 69 0 7.0 18.0 0.00 0.01 0.01 24 1028.3
20220923215543 69 0 11.0 27.0 0.00 0.01 0.01 25 1028.1
20220923215044 69 0 11.0 27.0 0.00 0.01 0.01 24 1028.1
20220923214543 69 0 7.0 18.0 0.00 0.01 0.01 24 1028.2
20220923214315 69 0 5.0 13.0 0.00 0.01 0.01 25 1028.6
20220923213542 70 0 4.0 12.0 0.00 0.01 0.01 23 1028.7
20220923213033 70 0 7.0 17.0 0.00 0.01 0.01 24 1028.7
20220923212533 68 0 12.0 22.0 0.00 0.01 0.01 26 1028.1
20220923212034 68 0 10.0 22.0 0.00 0.01 0.01 24 1027.7
20220923211533 68 0 7.0 16.0 0.00 0.01 0.01 24 1027.8
20220923211303 67 0 8.0 16.0 0.00 0.01 0.01 23 1027.7
20220923210033 68 0 9.0 22.0 0.00 0.01 0.01 24 1028.1
20220923205805 68 0 10.0 18.0 0.00 0.01 0.01 23 1028.2
20220923205305 67 0 10.0 24.0 0.00 0.01 0.01 24 1028.1
20220923204805 68 0 8.0 24.0 0.00 0.01 0.01 24 1027.7
20220923203758 67 0 10.0 24.0 0.00 0.01 0.01 23 1027.7
20220923203016 67 0 12.0 24.0 0.00 0.01 0.01 23 1027.7
20220923202747 67 0 11.0 19.0 0.00 0.01 0.01 24 1027.8
20220923202019 67 0 11.0 20.0 0.00 0.01 0.01 24 1027.7
20220923201517 66 0 10.0 25.0 0.00 0.01 0.01 24 1027.6
20220923201013 66 0 8.0 25.0 0.00 0.01 0.01 24 1027.7
20220923200513 66 0 8.0 18.0 0.00 0.01 0.01 24 1027.7
20220923200013 66 221 9.0 18.0 0.00 0.01 0.01 24 1027.9
20220923195745 66 0 10.0 19.0 0.00 0.01 0.01 25 1027.8
20220923195007 66 0 10.0 19.0 0.00 0.01 0.01 25 1027.7
20220923194454 67 0 8.0 20.0 0.00 0.01 0.01 25 1028.4
20220923192927 68 0 5.0 13.0 0.00 0.01 0.01 25 1029.2
20220923192420 68 0 5.0 13.0 0.00 0.01 0.01 25 1029.2
20220923191914 67 0 6.0 16.0 0.00 0.01 0.01 26 1028.9
20220923191412 66 57 7.0 16.0 0.00 0.01 0.01 24 1028.6
20220923190912 67 0 6.0 12.0 0.00 0.01 0.01 26 1028.8
20220923190643 67 0 5.0 11.0 0.00 0.01 0.01 25 1029.1